OPS 4682 DEB, 38443

Orbit data source: Space-Track

OPS 4682 DEB, 38443 is space debris in LEO originally from a launch on Sat, 03 Apr 1965 UTC launched from the Air Force Western Test Range (AFWTR). Debris objects in space refer to the collection of defunct objects orbiting the Earth. Examples of debris include non-operational satellites, rocket bodies, and fragments generated from explosions, collisions, or faulty payload assembly.

Loading next visibility...
Identifier
38443, 1965-027EY
Orbit
LEO
Country
Flag of USUS
Related business
Manufacturer
Unknown
Mission
Spacecraft
Bus & Motor
Unknown
Mass
Unknown
Launch date (UTC)
1965-04-03 (61 years ago)
Launch vehicle
Unknown
Launch site
Air Force Western Test Range (AFWTR)
Object type
Payload
Rocket body
Debris
Shape & HBR
Unknown shape, 0.1 m
Radar Cross Section
Medium (>0.1 m² and <1 m²)

Expand to show TLE details & history
Last TLE update: 3 days ago

TLE from 3 days ago
0 OPS 4682 DEB
1 38443U 65027EY  26205.89761561  .00000962  00000-0  31245-2 0  9994
2 38443  90.2372   3.9081 0031221 140.6543 219.6856 13.00928311556720
Epoch: 2026-07-24T21:32Z
TLE epoch observation values (Epoch: 2026-07-24T21:32:33.988Z)
Latitude
-0.00004°
Longitude
98.14883°
Altitude
1,279.718 km
Speed
7.207 km/s
True Right ascension
00h 15m 37s
True Declination
0° 00' 00"
Sunlit
Object was in daylight at epoch
Visualization orbit readout
Latitude
Unknown
Longitude
Unknown
Altitude
Unknown
Speed
Unknown
Apparent Right ascension
Unknown
Apparent Declination
Unknown
Sunlit
N/A
Visualization observer readout
Local Sidereal Time
00:02:11
Azimuth
Unknown
Elevation
Unknown
Doppler factor
Unknown
Orbital elements
Apogee altitude
1,279.41 km
Perigee altitude
1,231.744 km
Semi-major axis
7,633.714 km
Eccentricity
0.00312
Inclination
90.2372°
RAAN
3.9081°
Arg. of periapsis
140.6543°
True anomaly
219.45782°
Mean anomaly
219.6856°
Eccentric anomaly
219.57164°
Mean motion
3.25416 °/min
Orbital period
110.63 mins
BSTAR
0.0031245
Loading maneuver chart data...
Computing Atmospheric mass density...
Loading historical data...
Loading historical data...
Loading historical data...
Loading historical data...
Loading historical data...
Loading historical data...
Loading historical data...

Documentation

Showing up to 5 results
|